Location: Shannon
(40.5500°S, 175.4167°E)
Time: 21:58:46
(UTC+00:00)

Cosmos 724 - Pass Details

Date: 17 November 2025
Orbit: 851 x 943 km, 65.6° (Epoch: 06 December)

Event Time Altitude Azimuth Distance (km) Brightness Sun altitude
Exits shadow 14:16:26 47° 356° (N) 1,125 4.4 -22.8°
Maximum altitude 14:18:04 71° 62° (ENE) 910 4.3 -22.6°
Drops below altitude 10° 14:23:50 10° 145° (SE) 2,513 7.8 -22.0°
Sets 14:26:20 0° 146° (SSE) 3,461 8.9 -21.7°
